Location: City of Moscow
(46.7306°N, 116.9989°W)
Time: 08:30:02
(UTC+00:00)

BlueWalker 3 - Visible Passes

Search period start: 09 February 2026 00:00
Search period end: 19 February 2026 00:00
Orbit: 450 x 461 km, 53.2° (Epoch: 8 February)

Date Brightness Start Highest point End Pass type
(mag) Time Alt. Az. Time Alt. Az. Time Alt. Az.
9 Feb 2.6 01:51:20 10° WNW 01:54:47 51° SW 01:58:15 10° SE visible
10 Feb 5.0 02:55:13 10° WSW 02:55:58 10° SW 02:56:42 10° SW visible
11 Feb 4.8 02:18:29 10° W 02:20:22 14° SW 02:22:15 10° SSW visible
12 Feb 4.7 01:42:17 10° W 01:44:45 18° SW 01:47:13 10° S visible
